DELTA 1 DEB

Satellite information

Favourite Embed

Satellite Type and Status

DEBRISIN ORBIT

Key statistics

Satellite DELTA 1 DEB at a glance.

Uptime

20599

Days in orbit

Revolutions

≈ 12.5

Per day

Orbit

SSO

Sun Synchronous Orbit

Inclination

101.5

Latest

Satellite identification and parameters

Extended collection of information and parameters for DELTA 1 DEB.

Object identification

Identified? True

Debris? True

Object name: DELTA 1 DEB

International designator: 1968-114E

Object number (NORAD): 42078

Object ID (CCSDS): 42078

Country: UNITED STATES OF AMERICA (US)

Current information (Y/N): Y

RCS size: SMALL

Orbital parameters

Period: 115.199 minutes

Inclination: 101.4554 deg

SMA: 7842.59 km

Apoapsis: 1486.613 km

Periapsis: 1442.297 km

RAAN: 78.139 deg

Eccentricy: 0.0028253

Argument of periapsis: 16.781 deg

Mean anomaly: 343.419 deg

Mean motion: 12.50009983 rev/day

Mean motion (dot): 0.00000019 rev/day2

B* drag term: 0.00040761 1/REarth

Two-line elements (TLE)

Creation date: April 18, 2025, 2:23 a.m.

Reference frame: TEME

Reference center: EARTH

Epoch: April 17, 2025, 3:10 a.m. UTC

TLE line 0: 0 DELTA 1 DEB

TLE line 1: 1 42078U 68114E 25107.13231315 .00000019 00000-0 40761-3 0 9996

TLE line 2: 2 42078 101.4554 78.1390 0028253 16.7810 343.4190 12.50009983169977

Live tracking on map

Real-time ground track for satellite DELTA 1 DEB.

In-orbit conjunctions

A list of the most updated potential collisions computed for object DELTA 1 DEB.

Target Orbit TCA Probability of collision Miss distance Type
COSMOS 1132 LEO 2025-01-18 15:03:16 0.0001566329 198.0 (m) PAYLOAD
COSMOS 1252 LEO 2024-09-30 21:14:01 0.0002459494 239.0 (m) PAYLOAD
COSMOS 569 LEO 2024-07-17 21:42:36 0.0003239748 333.0 (m) PAYLOAD

Associated space launch

The ESSA series was the second generation of US meterological satellites after the TIROS (Television & Infra-Red Observation Satellite) series. They were also called OT (Operational TIROS), TOS (TIROS Operational Satellite).

DELTA 1 DEB was lifted into orbit during the mission ‘Thor Delta N | ESSA 8’, on board a Thor Delta N space rocket.

The launch took place on Dec. 15, 1968, 5:21 p.m. from Space Launch Complex 2E.

For more information about the launch, click the button.

Launch to space Thor Delta N | ESSA 8
Thor Delta N | ESSA 8

Agency: N/A

Status: Launch Successful

Launch date: Dec. 15, 1968, 5:21 p.m. UTC

Rocket: Thor Delta N

Launch pad: Space Launch Complex 2E

Location: Vandenberg SFB, CA, USA

...

Latest news about this satellite

There are no fresh news available about this satellite. Check back as we update our databases every day.


Newsletter sign-up

Weekly statistics, charts and insights to help you stay on top of the space industry.